Find Starlink 31533

NORAD ID: 59505 Int'l Des: 2024-071 Owner: SPXS Country: US Constellation: starlink operational
LEOCIRCULAR

リアルタイム位置

3D地球を読み込み中...

Starlink 31533について

説明を読み込み中...

次回通過

Passes for default location (London). Set your location on the main map for personalized predictions.

高度履歴

Loading altitude history...

軌道要素

1 59505U 24071X 26120.95851373 .00001841 00000-0 76409-4 0 9994
2 59505 43.0006 45.0568 0000835 285.2710 74.8050 15.27581213116195
Epoch: Apr 30, 2026 • Age: 12 hours

現在のステータス

高度 491.2 km
速度 7.62 km/s
衛星直下点 -31.71°S, 28.57°W
打ち上げ日 Apr 13, 2024
運用期間 2 years
タイプ internet

技術仕様

分類 Payload
質量 730.00 kg
乾燥質量 700.00 kg
総質量 730.00 kg
長さ 0.30 m
直径 4.10 m
スパン 29.00 m
形状 Box + pan
製造者 SPXS
バスタイプ Starlink V2M
フェーズステータス In Orbit
所有者/国 SPXS/US

Most Searched